Погода в Красном Яре

Россия / Приморский край     46°32′27″N   135°21′41″E
темп.,
°C
ветер,
м/с
пор.,
м/с
влажн.,
%
обл.,
%
осадки,
мм/ч
давл.,
гПа
погр.,
м
22 апреля, чт
чт2201:00+6в11440 0.0 102210
04:00+5юв11460 0.0 102310
07:00+6вюв11450 0.0 102419
10:00+16всв01240 0.0 1023492
13:00+23зюз12170 0.0 10221199
16:00+24зюз22155 0.0 10202108
19:00+20ююз11255 0.0 102011
22:00+14юв223048 0.0 102112
23 апреля, пт
пт2301:00+12ююв2237100 0.0 102323
04:00+10ю2247100 0.0 102420
07:00+10ююв1149100 0.0 102426
10:00+16юз3635100 0.0 1023805
13:00+18юз4732100 0.0 10231102
16:00+18зюз4737100 0.0 10211228
19:00+17з4847100 0.0 1021720
22:00+13зюз2670100 0.1 1022335
24 апреля, сб
сб2401:00+10юз2587100 1.0 1022415
04:00+10з3777100 1.2 1021639
07:00+7сз2453100 0.1 1022217
10:00+10зсз3541100 0.1 10211568
13:00+11зсз5626100 0.0 10191980
16:00+10сз5721100 0.0 10182098
19:00+10сз37230 0.0 1017848
22:00+5зюз113438 0.0 101810
25 апреля, вс
вс2501:00+3ююз1143100 0.0 101815
04:00+1ююз235025 0.0 101644
07:00+4з41142100 0.0 10151399
10:00+6сз6934100 0.2 10142765
13:00+7ссз6929100 0.1 10152815
16:00+8с71121100 0.3 10163500
19:00+7с37244 0.0 10182099
22:00+2вюв11370 0.0 102011
26 апреля, пн
пн2601:000ююв21420 0.0 102116
04:00−1ююв22460 0.0 102129
07:00+1ю23435 0.0 1021102
10:00+8юз352512 0.0 1020940
13:00+13зюз351716 0.0 10181952
16:00+15зюз361890 0.0 10152143
19:00+13ююз24285 0.0 1014102
22:00+7ююв2241100 0.0 101525